Regional Weather Roundup
Issued by NWS

Home | Current Version | Previous Version | Graphics & Text | Print | Product List | Glossary Off
Versions: 1 2 3 4 5 6 7 8 9 10 11 12 13 14 15 16 17 18 19 20 21 22 23 24 25 26 27 28 29 30 31 32 33 34 35 36 37 38 39 40 41 42 43 44 45 46 47 48 49 50

000
ASUS43 KTOP 040308
RWRKS

WEATHER ROUNDUP FOR KANSAS
NATIONAL WEATHER SERVICE GOODLAND KS
1000 PM CDT FRI JUL 03 2015

NOTE:  "FAIR" INDICATES FEW OR NO CLOUDS BELOW 12,000 FEET WITH NO
SIGNIFICANT WEATHER AND/OR OBSTRUCTIONS TO VISIBILITY.

KSZ001>006-013>018-027>032-041>047-040400-
NORTHWEST KANSAS

CITY           SKY/WX    TMP DP  RH WIND       PRES   REMARKS
GOODLAND       CLOUDY    74  59  59 SE14      30.04R
HAYS           CLEAR     72  57  60 E7        29.99R
HILL CITY      CLEAR     70  57  63 NE5       30.00R
RUSSELL        CLEAR     71  63  75 E7        29.97R
$$

KSZ061>065-074>080-084>089-040400-
SOUTHWEST KANSAS

CITY           SKY/WX    TMP DP  RH WIND       PRES   REMARKS
DODGE CITY     PTCLDY    72  57  59 E7        30.00R
ELKHART          N/A     70  59  68 S9          N/A
GARDEN CITY    CLEAR     71  64  78 E6        30.01R
GREAT BEND     CLEAR     73  63  68 SE5       29.99R
LIBERAL        CLEAR     73  63  68 S5        30.03R
PRATT          CLEAR     73  59  60 E3        29.99R
$$

KSZ066>073-081>083-090>101-040400-
SOUTHEAST KANSAS

CITY           SKY/WX    TMP DP  RH WIND       PRES   REMARKS
CHANUTE        CLEAR     73  67  81 E5        29.94R
COFFEYVILLE    CLEAR     75  68  78 NE6       29.92R
HUTCHINSON     PTCLDY    71  62  73 E7        29.96R
MEDICINE LODGE   N/A     75  62  64 E8        29.95R
NEWTON         CLEAR     72  61  68 CALM      29.99R
PARSONS        CLEAR     73  68  84 CALM      29.94R
WICHITA INTL   CLEAR     75  63  66 NE7       29.95R
WICHITA JABRA  CLEAR     70  63  78 NE5       29.95R
WICHITA MCCONL CLEAR     76  63  65 NE3       29.96R
WINFIELD       CLEAR     76  64  66 NE5       29.95R
$$

KSZ007>012-019>026-033>040-048>060-102>105-040400-
NORTHEAST KANSAS

CITY           SKY/WX    TMP DP  RH WIND       PRES   REMARKS
CONCORDIA      CLEAR     68  63  84 CALM      29.98R
EMPORIA        CLEAR     70  62  76 NE3       29.95R
LAWRENCE       CLEAR     65  61  87 CALM      29.96R
MANHATTAN      CLEAR     68  61  78 CALM      29.96R
MARYSVILLE     CLEAR     68  61  77 E5        29.97R
OLATHE IND     CLEAR     70  58  65 NE3       29.97R
OLATHE EXE     CLEAR     71  57  61 NE3       29.95R
SALINA         CLEAR     77  62  59 E6        29.96R
TOPEKA BILLARD CLEAR     69  62  78 CALM      29.95R
TOPEKA FORBES    N/A    N/A N/A N/A MISG      29.96R
$$


USA.gov is the U.S. government's official web portal to all federal, state and local government web resources and services.